Tracking 25693 objects as of 1-Jul-2022
HD Live streaming from Space Station
objects crossing your sky now

FENGYUN 1C DEB

Track FENGYUN 1C DEB now!
10-day predictions


NORAD ID: 36680
Int'l Code: 1999-025DZA
Perigee: 709.2 km
Apogee: 996.7 km
Inclination: 98.6 °
Period: 101.8 minutes
Semi major axis: 7223 km
RCS: 0.0016 m2 (small)
Launch date: May 10, 1999
Source: People's Republic of China (PRC)
Launch site: Taiyaun Space Center, China (TSC)

Note: This is SATELLITE DEBRIS
aabbcc
Your satellite tracking list
Your tracking list is empty




NASA's NSSDC Master Catalog

Two Line Element Set (TLE):
1 36680U 99025DZA 22180.35575521  .00000307  00000-0  15339-3 0  9998
2 36680  98.5658 207.1948 0198974 282.8695  87.7160 14.13977931464328
Source of the keplerian elements: AFSPC